Hauptseite
METAR-TAF:

METAR-TAF

Flughäfen :

Pembrey, Wales

Flughafen Pembrey

Breite: 51-43N, Länge: 004-22W, Höhe: 3 m

Beobachtung

Neuester Wetterbericht von vor 1 Stunde und 4 Minuten, um 05:50 UTC
Wind 13 kt aus Südwest
Temperatur 10°C
Luftfeuchtigkeit 100%
Luftdruck 1009 hPa
Sichtweite: 2700 m

METAR: EGOP 220550Z AUTO 23013KT 2700 // BKN002/// 10/10 Q1009

Zeit: 07:54 (06:54 UTC)


TAF: fehlend

Wetterbeobachtungen und Prognosen von mehr als 4000 Flughäfen (METAR und TAF Bericht).

Die verfügbaren Stationen werden durch gelbe und rote Markierungen auf der Karte dargestellt.

Führen Sie die Maus auf sie, um den Namen der Station zu sehen.

Darauf klicken, um die Beobachtung von Wetterbeobachtungen und Prognosen zu sehen.

Um die Karte zu ändern : klicken Sie auf den grünen Tasten mit einem schwarzen Kreuz Zum Vergrößern, auf den grünen Button mit einem Gedankenstrich zu verkleinern, oder auf die grünen Pfeile für benachbarte Karten.


METAR-TAF: